Location: Bolzano
(46.5170°N, 11.3670°E)
Time: 05:42:08
(UTC+01:00)

ISS - Pass Details

Date: 03 December 2021
Orbit: 413 x 423 km, 51.6° (Epoch: 18 January)

Event Time Altitude Azimuth Distance (km) Brightness Sun altitude
Rises 17:01:54 0° 291° (WNW) 2,382 0.8 -5.9°
Reaches altitude 10° 17:04:07 10° 300° (WNW) 1,515 -0.4 -6.2°
Maximum altitude 17:07:18 36° 9° (N) 689 -2.9 -6.7°
Drops below altitude 10° 17:10:28 10° 78° (ENE) 1,507 -1.6 -7.2°
Enters shadow 17:10:43 - 80° (E) 1,599 -1.4 -7.2°
